sat.trackr.live / text

‹ back to catalog

ST-2

NORAD 37606 · 2011-022B

PAYLOAD ACTIVE UNKNOWN

§ Identity

Operator
Country
STCT
Launch date
2011-05-20
Launch site
FRGUI
Launch vehicle
Mass (kg)
RCS (m²)
5.62

Purposes: comms

External: N2YO · Heavens-Above · Gunter

§ Orbital elements

Epoch: 2026-05-25T02:26:52.768032Z

Period
1,436.10 min
Inclination
0.0243°
Eccentricity
0.0001949
Mean motion
1.00271536 rev/d
Perigee alt
35,778.4 km
Apogee alt
35,794.9 km
Semi-major
42,164.8 km
B*
0.0000e+0
RAAN
118.3603°
Arg perigee
316.1752°
Mean anomaly
292.8917°
Rev number
5,504

§ Raw data

ST-21 37606U 11022B   26145.10199963 -.00000214  00000+0  00000+0 0  99902 37606   0.0243 118.3603 0001949 316.1752 292.8917  1.00271536 55040

JSON: /api/v1/satellites/37606 · /tle

For live sub-satellite position, see the globe view (requires WebGL).

§ Visibility from observer

Set your observer location to see the next 7 days of passes ≥ 10°. The values pass through the URL so the page stays shareable.

No JS? Fill the form by hand. The geolocation button needs JavaScript.